Weather Roundup
Issued by NWS Chicago, IL

Home | Current Version | Previous Version | Text Only | Print | Product List | Glossary Off
Versions: 1 2 3 4 5 6 7 8 9 10 11 12 13 14 15 16 17 18 19 20 21 22 23 24 25 26 27 28 29 30 31 32 33 34 35 36 37 38 39 40 41 42 43 44 45 46 47 48 49 50

102
NZUS59 KLOT 141503
HRRLOT

CHICAGO AREA WEATHER ROUNDUP
NATIONAL WEATHER SERVICE CHICAGO/ROMEOVILLE IL
900 AM CST SUN FEB 14 2016

NOTE: "FAIR" INDICATES FEW OR NO CLOUDS BELOW 12,000 FEET WITH NO
SIGNIFICANT WEATHER AND/OR OBSTRUCTIONS TO VISIBILITY.

* THESE STATIONS ARE NOT UNDER NWS QUALITY CONTROL. THEY ALSO MAY NOT
  REPORT WEATHER SUCH AS PRECIPITATION OR FOG.

ILZ005-006-012>014-019>023-141600-
NORTHEAST ILLINOIS

CITY           SKY/WX    TMP DP  RH WIND       PRES   REMARKS
OHARE          CLOUDY    16   2  54 SE17      30.27F WCI   0
MIDWAY         CLOUDY    16   1  51 SE15      30.29F WCI   1
AURORA         CLOUDY    17   3  54 SE20      30.25F WCI   1
WAUKEGAN       CLOUDY    16   8  71 SE15G26   30.27F WCI   1
DUPAGE AIRPORT CLOUDY    15   1  53 SE13      30.25F WCI   1
WHEELING       CLOUDY    16   4  59 SE14      30.30F WCI   2
$$

WIZ051-052-058>065-066-070>072-141600-
SOUTHEAST WISCONSIN

CITY           SKY/WX    TMP DP  RH WIND       PRES   REMARKS
MILWAUKEE      FLURRIES  15   7  70 S8        30.28F WCI   4
KENOSHA*       CLOUDY    17   8  67 SE20      30.27F WCI   1
RACINE*        CLOUDY    19   9  65 SE20      30.29F WCI   3
BURLINGTON     CLOUDY    13   2  61 SE12G18   30.25F WCI   0
WAUKESHA       SUNNY      9   1  72 SE17G23   30.27F WCI -10
$$

INZ001>003-010>013-019-020-141600-
NORTHWEST INDIANA

CITY           SKY/WX    TMP DP  RH WIND       PRES   REMARKS
GARY*          CLOUDY    16   1  53 SE14      30.30F WCI   1
MICHIGAN CITY* NOT AVBL
RENSSELAER*    NOT AVBL
VALPARAISO     CLOUDY    13   5  70 E16       30.30F WCI  -3
$$

LMZ740>746-141600-
SOUTHERN LAKE MICHIGAN

STATION/POSITION TIME  SKY/WX   TEMP WIND        PRES    VSBY
                                AIR  DIR/SP/G
                 (UTC)          (F)  (DEG/KT/KT) (MB)    (MI)
HARRISON CRIB    1400            16  140/ 20/ 24   N/A
BURNHAM HARBOR   1500            16  110/ 17/ 21   N/A
CALUMET HARBOR   1400            14  120/ 13/ 17 1026.8F
BURNS HARBOR     1400            13  130/  7/ 21 1028.8F
MICHIGAN CITY    1400            11  100/ 10/ 13   N/A
$$

ABBREVIATIONS USED IN REMARKS
   TC - TEMPERATURE IN CELSIUS
  WCI - WIND CHILL INDEX
   HX - HEAT INDEX
  VSB - VISIBILITY
$$




USA.gov is the U.S. government's official web portal to all federal, state and local government web resources and services.